Weather History for Kendall, FL

Change the Weather History Date:

Monday, December 10, 2012

  Actual Average Record
Temperature  
Mean Temperature 75 °F -  
Max Temperature 82 °F 78 °F 86 °F (1997)
Min Temperature 68 °F 58 °F 46 °F (1996)
Cooling Degree Days 10    
Growing Degree Days 25 (Base 50)    
Moisture  
Dew Point 72 °F    
Average Humidity 91    
Maximum Humidity 100    
Minimum Humidity 69    
Precipitation  
Precipitation 0.01 in - - ()
Sea Level Pressure  
Sea Level Pressure 29.99 in    
Wind  
Wind Speed 2 mph (SSE)    
Max Wind Speed 13 mph    
Max Gust Speed 17 mph    
Visibility 6 miles    
Events Fog    
Averages and records for this station are not official NWS values.
T = Trace of Precipitation, MM = Missing Value Source: NWS Daily Summary

Daily Weather History Graph

Daily Weather History Graph

Search for Another Location

Airport:

Trip Planner

Search our weather history database for the weather conditions in past years. The results will help you decide how hot, cold, wet, or windy it might be!

Date:

Astronomy

Dec. 10, 2012 Rise Set
Actual Time 6:57 AM EST 5:32 PM EST
Civil Twilight 6:32 AM EST 5:57 PM EST
Nautical Twilight 6:03 AM EST 6:25 PM EST
Astronomical Twilight 5:35 AM EST 6:53 PM EST
Moon 3:50 AM EST (12/10) 3:11 PM EST (12/10)
Length of Visible Light 11h 24m
Length of Day
10h 34m
Waning Crescent, 10% of the Moon is Illuminated
Dec 10
Waning Crescent
Dec 13
New
Dec 20
First Quarter
Dec 28
Full
Jan 4
Last Quarter

Hourly Weather History & Observations

Time (EST) Temp. Heat Index Dew Point Humidity Pressure Visibility Wind Dir Wind Speed Gust Speed Precip Events Conditions
12:12 AM 71.6 °F - 69.8 °F 94% 30.04 in 2.5 mi Calm Calm - N/A   Mostly Cloudy
12:18 AM 71.6 °F - 71.6 °F 100% 30.03 in 1.0 mi Calm Calm - N/A   Mist
12:21 AM 71.6 °F - 71.6 °F 100% 30.03 in 0.8 mi Calm Calm - N/A   Mist
12:53 AM 70.0 °F - 70.0 °F 100% 30.03 in 0.2 mi Calm Calm - N/A Fog Fog
1:00 AM 69.8 °F - 69.8 °F 100% 30.03 in 0.5 mi Calm Calm - N/A Fog Fog
1:18 AM 69.8 °F - 69.8 °F 100% 30.02 in 1.2 mi Calm Calm - N/A   Overcast
1:27 AM 71.6 °F - 69.8 °F 94% 30.02 in 0.5 mi Calm Calm - N/A Fog Fog
1:44 AM 71.6 °F - 71.6 °F 100% 30.02 in 3.0 mi Calm Calm - N/A   Mostly Cloudy
1:49 AM 71.6 °F - 71.6 °F 100% 30.02 in 1.8 mi Calm Calm - N/A   Mostly Cloudy
1:53 AM 69.1 °F - 69.1 °F 100% 30.02 in 0.8 mi Calm Calm - N/A   Mist
2:36 AM 69.8 °F - 69.8 °F 100% 30.01 in 2.5 mi Calm Calm - N/A   Overcast
2:43 AM 69.8 °F - 69.8 °F 100% 30.01 in 0.8 mi Calm Calm - N/A   Mist
2:50 AM 69.8 °F - 69.8 °F 100% 30.00 in 0.2 mi Calm Calm - N/A Fog Fog
2:53 AM 70.0 °F - 70.0 °F 100% 30.00 in 0.2 mi Calm Calm - N/A Fog Fog
3:11 AM 69.8 °F - 69.8 °F 100% 30.00 in 0.5 mi Calm Calm - N/A Fog Fog
3:15 AM 69.8 °F - 69.8 °F 100% 30.00 in 0.2 mi Calm Calm - N/A Fog Fog
3:24 AM 68.0 °F - 68.0 °F 100% 30.00 in 0.5 mi Calm Calm - N/A Fog Fog
3:51 AM 68.0 °F - 68.0 °F 100% 29.99 in 2.0 mi Calm Calm - N/A   Mostly Cloudy
3:53 AM 68.0 °F - 68.0 °F 100% 29.99 in 1.8 mi Calm Calm - N/A   Mostly Cloudy
4:02 AM 68.0 °F - 68.0 °F 100% 29.99 in 0.2 mi Calm Calm - N/A Fog Fog
4:25 AM 69.8 °F - 69.8 °F 100% 29.98 in 0.5 mi Calm Calm - 0.01 in Fog Fog
4:46 AM 71.6 °F - 71.6 °F 100% 29.98 in 2.5 mi SE 3.5 mph - 0.01 in   Mostly Cloudy
4:49 AM 71.6 °F - 71.6 °F 100% 29.98 in 5.0 mi SE 3.5 mph - 0.01 in   Scattered Clouds
4:53 AM 71.1 °F - 71.1 °F 100% 29.98 in 7.0 mi ESE 3.5 mph - 0.01 in   Scattered Clouds
5:12 AM 71.6 °F - 71.6 °F 100% 29.98 in 1.8 mi Calm Calm - N/A   Clear
5:18 AM 71.6 °F - 71.6 °F 100% 29.98 in 0.8 mi Calm Calm - N/A   Mist
5:47 AM 71.6 °F - 71.6 °F 100% 29.98 in 2.0 mi SE 3.5 mph - N/A   Mostly Cloudy
5:53 AM 71.1 °F - 71.1 °F 100% 29.99 in 8.0 mi SE 3.5 mph - N/A   Scattered Clouds
6:53 AM 73.0 °F - 73.0 °F 100% 30.00 in 10.0 mi SSE 3.5 mph - N/A   Clear
7:53 AM 75.0 °F - 73.9 °F 96% 30.02 in 10.0 mi Calm Calm - N/A   Partly Cloudy
8:53 AM 79.0 °F - 75.0 °F 88% 30.02 in 10.0 mi SSE 8.1 mph - N/A   Mostly Cloudy
9:53 AM 82.0 °F 87.9 °F 73.9 °F 76% 30.02 in 10.0 mi SSE 8.1 mph 17.3 mph N/A   Scattered Clouds
10:53 AM 81.0 °F 85.8 °F 73.0 °F 77% 30.01 in 10.0 mi SSE 11.5 mph - N/A   Mostly Cloudy
11:53 AM 82.0 °F 87.4 °F 73.0 °F 74% 29.99 in 10.0 mi SSE 11.5 mph - N/A   Scattered Clouds
12:53 PM 82.9 °F 88.8 °F 73.0 °F 72% 29.96 in 10.0 mi SSE 10.4 mph - N/A   Mostly Cloudy
1:24 PM 82.4 °F 88.2 °F 73.4 °F 74% 29.95 in 10.0 mi SSE 10.4 mph - N/A   Mostly Cloudy
1:53 PM 82.0 °F 87.4 °F 73.0 °F 74% 29.94 in 10.0 mi SSE 9.2 mph 16.1 mph N/A   Overcast
2:10 PM 82.4 °F 88.2 °F 73.4 °F 74% 29.95 in 10.0 mi South 12.7 mph - N/A   Mostly Cloudy
2:53 PM 82.9 °F 88.0 °F 72.0 °F 69% 29.94 in 10.0 mi South 8.1 mph - N/A   Partly Cloudy
3:53 PM 82.0 °F 86.7 °F 72.0 °F 71% 29.93 in 10.0 mi South 9.2 mph - N/A   Scattered Clouds
4:53 PM 80.1 °F 84.2 °F 73.0 °F 79% 29.94 in 10.0 mi SSE 8.1 mph - N/A   Scattered Clouds
5:10 PM 80.6 °F 85.4 °F 73.4 °F 79% 29.94 in 10.0 mi South 8.1 mph - N/A   Mostly Cloudy
5:18 PM 80.6 °F 85.4 °F 73.4 °F 79% 29.95 in 10.0 mi South 6.9 mph - N/A   Scattered Clouds
5:30 PM 80.6 °F 85.4 °F 73.4 °F 79% 29.95 in 10.0 mi South 4.6 mph - N/A   Mostly Cloudy
5:42 PM 78.8 °F - 73.4 °F 83% 29.95 in 10.0 mi South 6.9 mph - N/A   Scattered Clouds
5:53 PM 79.0 °F - 73.9 °F 84% 29.95 in 10.0 mi South 5.8 mph - N/A   Partly Cloudy
6:53 PM 78.1 °F - 73.9 °F 87% 29.95 in 10.0 mi South 5.8 mph - N/A   Clear
7:53 PM 78.1 °F - 73.9 °F 87% 29.96 in 10.0 mi South 5.8 mph - N/A   Clear
8:53 PM 78.1 °F - 75.0 °F 90% 29.98 in 10.0 mi SSE 4.6 mph - N/A   Clear
9:53 PM 78.1 °F - 75.0 °F 90% 29.98 in 10.0 mi SSE 8.1 mph - N/A   Clear
10:53 PM 77.0 °F - 73.9 °F 90% 29.97 in 10.0 mi SSE 6.9 mph - N/A   Clear
11:53 PM 77.0 °F - 73.9 °F 90% 29.97 in 10.0 mi SSE 6.9 mph - N/A   Clear